sat.trackr.live / text

‹ back to catalog

STARLINK-36462

NORAD 67321 · 2026-002S

PAYLOAD ACTIVE UNKNOWN

§ Identity

Operator
Country
US
Launch date
2026-01-04
Launch site
AFETR
Launch vehicle
Mass (kg)
RCS (m²)

Purposes: comms

External: N2YO · Heavens-Above · Gunter

§ Orbital elements

Epoch: 2026-09-19T11:30:40.467456Z

Period
94.27 min
Inclination
43.0045°
Eccentricity
0.0002770
Mean motion
15.27596168 rev/d
Perigee alt
481.1 km
Apogee alt
484.9 km
Semi-major
6,861.1 km
B*
4.8874e-4
RAAN
311.1047°
Arg perigee
300.0653°
Mean anomaly
59.9924°
Rev number
4,071

§ Raw data

STARLINK-364621 67321U 26002S   26262.47963504  .00013218  00000+0  48874-3 0  99932 67321  43.0045 311.1047 0002770 300.0653  59.9924 15.27596168 40717

JSON: /api/v1/satellites/67321 · /tle

For live sub-satellite position, see the globe view (requires WebGL).

§ Visibility from observer

Set your observer location to see the next 7 days of passes ≥ 10°. The values pass through the URL so the page stays shareable.

No JS? Fill the form by hand. The geolocation button needs JavaScript.